Regional Weather Roundup
Issued by NWS Mt. Holly, NJ

Home | Current Version | Previous Version | Text Only | Print | Product List | Glossary On
Versions: 1 2 3 4 5 6 7 8 9 10 11 12 13 14 15 16 17 18 19 20 21 22 23 24 25 26 27 28 29 30 31 32 33 34 35 36 37 38 39 40 41 42 43 44 45 46 47 48 49 50
000
ASUS41 KPHI 280910
RWRPHI

REGIONAL WEATHER ROUNDUP
NATIONAL WEATHER SERVICE MOUNT HOLLY NJ
500 AM EDT MON JUL 28 2014

NOTE:  "FAIR" INDICATES FEW OR NO CLOUDS BELOW 12,000 FEET WITH NO
SIGNIFICANT WEATHER AND/OR OBSTRUCTIONS TO VISIBILITY.

 * = STATION DOES NOT REPORT PRECIPITATION (E.G. RAIN, SNOW, ETC.)
        OR FOG.

NJZ015>026-281000-
SOUTHERN NEW JERSEY

CITY           SKY/WX    TMP DP  RH WIND       PRES   REMARKS
POMONA         MOCLDY    69  68  96 S5        29.57F
RIO GRANDE*    MOCLDY    73  70  88 S6        29.59S
MILLVILLE      CLOUDY    70  69  97 SE3       29.57F
WRIGHTSTOWN    MOCLDY    67  66  99 S5        29.54F
MOUNT HOLLY    MOCLDY    67  65  93 CALM      29.55F
TRENTON        MOCLDY    67  66  97 MISG      29.54F

$$
NJZ001>014-281000-
NORTHERN NEW JERSEY

CITY           SKY/WX    TMP DP  RH WIND       PRES   REMARKS
SUSSEX         LGT RAIN  71  67  87 CALM      29.55F
ANDOVER*         N/A     68  66  93 CALM      29.55F
MORRISTOWN     CLOUDY    72  68  88 CALM      29.54F
NEWARK         CLOUDY    70  68  93 S5        29.54F
TETERBORO      CLOUDY    72  67  84 S3        29.53F
CALDWELL       CLOUDY    70  66  87 CALM      29.54F
SOMERVILLE     MOCLDY    68  67  96 S5        29.53S
ALLAIRE*       MOCLDY    68  63  83 CALM      29.56R
TOMS RIVER*    MOCLDY    68  66  94 SW5       29.56F

$$
PAZ043-044-047-054-055-060>062-066>071-281000-
EASTERN PENNSYLVANIA

CITY           SKY/WX    TMP DP  RH WIND       PRES   REMARKS
PHILADELPHIA   MOCLDY    70  66  87 S6        29.56F
NORTH PHILA    MOCLDY    69  65  86 SW3       29.56F
BLUE BELL      MOCLDY    68  68 100 CALM      29.54F
DOYLESTOWN     MOCLDY    67  67 100 S5        29.54F
QUAKERTOWN*    CLOUDY    68  66  94 SW5       29.56F
POTTSTOWN      MOCLDY    67  66  97 SW3       29.56F
LANCASTER      CLOUDY    67  66  97 W7        29.57S
COATESVILLE    MOCLDY    64  64 100 CALM      29.57F
READING        CLOUDY    68  65  90 W3        29.55F
ALLENTOWN      CLOUDY    68  65  90 W3        29.54F
MOUNT POCONO   CLOUDY    64  61  90 W6        29.58F
HAZLETON       CLOUDY    63  63 100 CALM      29.60F
WILKES BARRE   CLOUDY    67  62  84 CALM      29.56F

$$
DEZALL-MDZ008-012-015-019-020-281000-
DELAWARE AND EASTERN MARYLAND

CITY           SKY/WX    TMP DP  RH WIND       PRES   REMARKS
WILMINGTON     MOCLDY    69  67  93 S5        29.57F
DOVER          MOCLDY    75  75 100 SW7       29.55F
GEORGETOWN     PTCLDY    73  71  93 S8        29.59S
EASTON         CLOUDY    78  76  92 W3        29.62S
PATUXENT       MOCLDY    76  71  85 SW9       29.60R
OCEAN CITY     PTCLDY    77  73  87 SW8       29.60S
WALLOPS ISLAND CLEAR     80  73  79 W10       29.62R
CAMBRIDGE      MOCLDY    79  72  78 W5        29.58F

$$
PAZ001-021-NYZ056-072-MDZ011-DCZ001-281000-
OTHER NEARBY LOCATIONS

CITY           SKY/WX    TMP DP  RH WIND       PRES   REMARKS
HARRISBURG     PTCLDY    67  63  87 VRB3      29.55F
STATE COLLEGE  CLOUDY    63  62  97 CALM      29.59S
WILLIAMSPORT   CLOUDY    66  63  90 W3        29.55R
BINGHAMTON     LGT RAIN  64  63  96 CALM      29.58F FOG
NEW YORK CITY  CLOUDY    69  66  90 W8        29.57F
BALTIMORE      MOCLDY    71  69  93 SW3       29.58S
WASHINGTON DC  PTCLDY    74  67  78 SW3       29.59F

$$


USA.gov is the U.S. government's official web portal to all federal, state and local government web resources and services.